Glen Ullin Rgnl, Glen Ullin,, ND

3:09 AM MDT on August 21, 2017 (GMT -0600)
Glen Ullin Rgnl, Glen Ullin,

Weather History for KD57 - January, 2014

Change the Weather History Date:

Sunday, January 5, 2014

  Actual Average (KDIK) Record (KDIK)
Temperature  
Mean Temperature -12 °F -  
Max Temperature -7 °F 20 °F 62 °F (2012)
Min Temperature -16 °F 3 °F -35 °F (1940)
Degree Days  
Heating Degree Days 76    
Moisture  
Dew Point -26 °F    
Average Humidity 56    
Maximum Humidity 65    
Minimum Humidity 48    
Precipitation  
Precipitation 0.00 in - - ()
Sea Level Pressure  
Sea Level Pressure 30.42 in    
Wind  
Wind Speed 20 mph (NW)    
Max Wind Speed 36 mph    
Max Gust Speed 46 mph    
Visibility 5 miles    
Events Snow    
Averages and records for this station are not official NWS values.
T = Trace of Precipitation, MM = Missing Value Source: NWS Daily Summary

Daily Weather History Graph

Daily Weather History Graph

Search for Another Location

Airport or City:

Trip Planner

Search our weather history database for the weather conditions in past years. The results will help you decide how hot, cold, wet, or windy it might be!

Date:

Astronomy

Jan. 05, 2014 Rise Set
Actual Time 7:32 AM MST 4:13 PM MST
Civil Twilight 6:57 AM MST 4:48 PM MST
Nautical Twilight 6:19 AM MST 5:27 PM MST
Astronomical Twilight 5:42 AM MST 6:03 PM MST
Moon 9:54 AM MST (1/5) 10:06 PM MST (1/5)
Length of Visible Light 9h 51m
Length of Day
8h 41m
Waxing Crescent, 25% of the Moon is Illuminated
Jan 5
Waxing Crescent
Jan 7
First Quarter
Jan 15
Full
Jan 23
Last Quarter
Jan 30
New

Hourly Weather History & Observations

Time (MST) Temp. Windchill Dew Point Humidity Pressure Visibility Wind Dir Wind Speed Gust Speed Precip Events Conditions
12:15 AM -9.4 °F -27.9 °F -20.2 °F 59% 30.26 in 10.0 mi NW 10.4 mph - N/A   Scattered Clouds
12:35 AM -11.2 °F -30.1 °F -20.2 °F 64% 30.27 in 10.0 mi NNW 10.4 mph - N/A   Mostly Cloudy
12:55 AM -11.2 °F -26.4 °F -22.0 °F 59% 30.27 in 10.0 mi WNW 6.9 mph - N/A   Mostly Cloudy
1:15 AM -13.0 °F -28.6 °F -22.0 °F 64% 30.27 in 10.0 mi NW 6.9 mph - N/A   Mostly Cloudy
1:35 AM -14.8 °F -32.2 °F -23.8 °F 64% 30.28 in 10.0 mi NW 8.1 mph - N/A   Scattered Clouds
1:55 AM -14.8 °F -33.5 °F -23.8 °F 64% 30.28 in 10.0 mi NW 9.2 mph - N/A   Partly Cloudy
2:15 AM -13.0 °F -28.6 °F -22.0 °F 64% 30.28 in 10.0 mi WNW 6.9 mph - N/A   Mostly Cloudy
2:35 AM -13.0 °F - -22.0 °F 64% 30.28 in 10.0 mi Calm Calm - N/A   Overcast
2:55 AM -13.0 °F -31.3 °F -22.0 °F 64% 30.28 in 10.0 mi WNW 9.2 mph - N/A   Mostly Cloudy
3:15 AM -7.6 °F -33.4 °F -18.4 °F 59% 30.28 in 9.0 mi NW 23.0 mph - N/A   Overcast
3:35 AM -7.6 °F -30.5 °F -16.6 °F 65% 30.29 in 3.0 mi NW 17.3 mph - N/A Snow Light Snow
3:55 AM -7.6 °F -29.8 °F -16.6 °F 65% 30.29 in 3.0 mi NW 16.1 mph 23.0 mph N/A   Haze
4:15 AM -7.6 °F -35.3 °F -18.4 °F 59% 30.29 in 6.0 mi NW 27.6 mph - N/A   Haze
4:35 AM -7.6 °F -33.9 °F -18.4 °F 59% 30.30 in 4.0 mi NW 24.2 mph - N/A   Haze
4:55 AM -7.6 °F -33.9 °F -20.2 °F 54% 30.31 in 7.0 mi NNW 24.2 mph 29.9 mph N/A   Overcast
5:15 AM -7.6 °F -32.9 °F -20.2 °F 54% 30.32 in 5.0 mi NNW 21.9 mph - N/A Snow Light Snow
5:35 AM -7.6 °F -28.3 °F -18.4 °F 59% 30.33 in 3.0 mi NNW 13.8 mph 24.2 mph N/A   Haze
5:55 AM -9.4 °F -34.1 °F -18.4 °F 65% 30.34 in 4.0 mi NW 19.6 mph - N/A   Haze
6:15 AM -9.4 °F -37.3 °F -20.2 °F 59% 30.35 in 0.5 mi NW 26.5 mph 34.5 mph N/A   Haze
6:35 AM -11.2 °F -38.7 °F -20.2 °F 64% 30.36 in 0.8 mi NNW 24.2 mph 31.1 mph N/A   Light Freezing Rain
6:55 AM -13.0 °F -42.6 °F -22.0 °F 64% 30.38 in 0.5 mi NNW 27.6 mph 34.5 mph N/A   Haze
7:15 AM -13.0 °F -40.6 °F -23.8 °F 59% 30.40 in 1.5 mi NNW 23.0 mph 28.8 mph N/A   Haze
7:35 AM -13.0 °F -42.6 °F -23.8 °F 59% 30.42 in 0.2 mi NW 27.6 mph 35.7 mph N/A Snow Light Snow
7:55 AM -14.8 °F -44.0 °F -27.4 °F 53% 30.43 in 0.5 mi NW 25.3 mph 33.4 mph N/A   Haze
8:15 AM -16.6 °F -47.4 °F -29.2 °F 53% 30.45 in 0.8 mi NNW 27.6 mph 39.1 mph N/A   Haze
8:35 AM -16.6 °F -45.9 °F -31.0 °F 48% 30.47 in 4.0 mi NNW 24.2 mph 32.2 mph N/A   Haze
8:55 AM -16.6 °F -46.9 °F -31.0 °F 48% 30.48 in 8.0 mi NW 26.5 mph - N/A   Partly Cloudy
9:15 AM -16.6 °F -45.9 °F -31.0 °F 48% 30.49 in 2.5 mi NW 24.2 mph 33.4 mph N/A   Haze
9:35 AM -16.6 °F - -31.0 °F 48% 30.50 in 10.0 mi North - - N/A   Scattered Clouds
9:55 AM -16.6 °F -47.9 °F -29.2 °F 53% 30.51 in 1.8 mi NW 28.8 mph 38.0 mph N/A   Haze
10:15 AM -16.6 °F -49.2 °F -29.2 °F 53% 30.51 in 1.0 mi NW 32.2 mph 38.0 mph N/A   Haze
10:35 AM -16.6 °F -48.8 °F -29.2 °F 53% 30.51 in 1.0 mi NW 31.1 mph 41.4 mph N/A   Haze
10:55 AM -16.6 °F -50.1 °F -29.2 °F 53% 30.50 in 1.0 mi NW 34.5 mph 42.6 mph N/A   Haze
11:15 AM -16.6 °F -49.7 °F -29.2 °F 53% 30.50 in 1.5 mi NW 33.4 mph 41.4 mph N/A   Haze
11:35 AM -14.8 °F -47.6 °F -29.2 °F 48% 30.50 in 2.0 mi NW 34.5 mph - N/A   Haze
11:55 AM -14.8 °F -47.6 °F -27.4 °F 53% 30.49 in 2.0 mi NW 34.5 mph - N/A   Haze
12:15 PM -14.8 °F -46.8 °F -27.4 °F 53% 30.48 in 1.5 mi NW 32.2 mph 40.3 mph N/A   Haze
12:35 PM -14.8 °F -45.9 °F -27.4 °F 53% 30.49 in 3.0 mi NW 29.9 mph 40.3 mph N/A   Haze
12:55 PM -14.8 °F -47.6 °F -29.2 °F 48% 30.48 in 2.5 mi WNW 34.5 mph 42.6 mph N/A   Haze
1:15 PM -14.8 °F -48.0 °F -29.2 °F 48% 30.48 in 2.5 mi NW 35.7 mph 46.0 mph N/A   Haze
1:35 PM -14.8 °F -48.0 °F -29.2 °F 48% 30.49 in 2.5 mi WNW 35.7 mph 43.7 mph N/A   Haze
1:55 PM -14.8 °F -47.6 °F -29.2 °F 48% 30.49 in 4.0 mi NW 34.5 mph 40.3 mph N/A   Haze
2:15 PM -14.8 °F -44.0 °F -29.2 °F 48% 30.48 in 7.0 mi NW 25.3 mph 39.1 mph N/A   Scattered Clouds
2:35 PM -14.8 °F -47.6 °F -29.2 °F 48% 30.49 in 6.0 mi NW 34.5 mph 41.4 mph N/A   Haze
2:55 PM -14.8 °F -47.2 °F -29.2 °F 48% 30.50 in 5.0 mi NW 33.4 mph 40.3 mph N/A   Haze
3:15 PM -14.8 °F -47.2 °F -29.2 °F 48% 30.51 in 5.0 mi NW 33.4 mph 40.3 mph N/A   Haze
3:35 PM -16.6 °F -50.1 °F -29.2 °F 53% 30.51 in 9.0 mi WNW 34.5 mph - N/A   Mostly Cloudy
3:55 PM -16.6 °F -46.4 °F -29.2 °F 53% 30.50 in 10.0 mi NW 25.3 mph 36.8 mph N/A   Overcast
4:15 PM -16.6 °F -48.8 °F -29.2 °F 53% 30.49 in 5.0 mi NW 31.1 mph 39.1 mph N/A   Haze
4:35 PM -16.6 °F -47.4 °F -29.2 °F 53% 30.49 in 10.0 mi NW 27.6 mph 36.8 mph N/A   Overcast
4:55 PM -16.6 °F -47.9 °F -29.2 °F 53% 30.49 in 10.0 mi NW 28.8 mph 38.0 mph N/A   Overcast
5:15 PM -16.6 °F -45.9 °F -29.2 °F 53% 30.50 in 9.0 mi NW 24.2 mph 33.4 mph N/A   Mostly Cloudy
5:35 PM -16.6 °F -46.9 °F -27.4 °F 58% 30.49 in 3.0 mi WNW 26.5 mph - N/A Snow Light Snow
5:55 PM -16.6 °F -49.2 °F -27.4 °F 58% 30.48 in 1.2 mi WNW 32.2 mph 40.3 mph N/A Snow Light Snow
6:15 PM -16.6 °F -46.4 °F -27.4 °F 58% 30.49 in 5.0 mi WNW 25.3 mph 31.1 mph N/A   Haze
6:35 PM -16.6 °F -44.8 °F -29.2 °F 53% 30.49 in 9.0 mi NW 21.9 mph 28.8 mph N/A   Mostly Cloudy
6:55 PM -16.6 °F -44.8 °F -27.4 °F 58% 30.48 in 10.0 mi WNW 21.9 mph - N/A   Overcast
7:15 PM -16.6 °F -45.9 °F -27.4 °F 58% 30.46 in 10.0 mi NW 24.2 mph 29.9 mph N/A   Overcast
7:35 PM -16.6 °F -45.3 °F -27.4 °F 58% 30.46 in 9.0 mi WNW 23.0 mph 31.1 mph N/A   Overcast
7:55 PM -16.6 °F -45.3 °F -27.4 °F 58% 30.45 in 10.0 mi WNW 23.0 mph 28.8 mph N/A   Mostly Cloudy
8:15 PM -16.6 °F -44.8 °F -27.4 °F 58% 30.44 in 10.0 mi WNW 21.9 mph 31.1 mph N/A   Overcast
8:35 PM -16.6 °F -47.4 °F -27.4 °F 58% 30.44 in 3.0 mi WNW 27.6 mph 33.4 mph N/A   Haze
8:55 PM -14.8 °F -44.0 °F -27.4 °F 53% 30.43 in 7.0 mi WNW 25.3 mph 32.2 mph N/A   Overcast